This is the latest recevied weather packets stored in our database for station/object K0CVS. If no packets are shown the sender has not sent any weather packets the latest 10 day(s).
| Time | Temp. | Humidity | Pressure | Rain* | Wind** | Luminosity | Snow |
|---|---|---|---|---|---|---|---|
| 1778176615 | 17.78° C | 50% | 1014.8 hPa | 0 mm | - | 915 W/m² | - |
| 1778176313 | 18.33° C | 49% | 1015.1 hPa | 0 mm | - | 323 W/m² | - |
| 1778176010 | 18.33° C | 50% | 1015.2 hPa | 0 mm | - | 828 W/m² | - |
| 1778175708 | 17.78° C | 51% | 1015.1 hPa | 0 mm | - | 823 W/m² | - |
| 1778175405 | 17.22° C | 51% | 1015.2 hPa | 0 mm | - | 803 W/m² | - |
| 1778175102 | 17.78° C | 49% | 1015.1 hPa | 0 mm | - | 131 W/m² | - |
| 1778174798 | 17.22° C | 50% | 1015.2 hPa | 0 mm | - | 178 W/m² | - |
| 1778174496 | 17.22° C | 50% | 1015.3 hPa | 0 mm | - | 230 W/m² | - |
| 1778174190 | 16.67° C | 51% | 1015.3 hPa | 0 mm | - | 299 W/m² | - |
| 1778173887 | 16.67° C | 52% | 1015.6 hPa | 0 mm | - | 270 W/m² | - |
| 1778173584 | 16.67° C | 51% | 1015.6 hPa | 0 mm | - | 161 W/m² | - |
| 1778173281 | 17.22° C | 53% | 1015.7 hPa | 0 mm | - | 198 W/m² | - |
| 1778172977 | 17.22° C | 51% | 1015.8 hPa | 0 mm | - | 186 W/m² | - |
| 1778172673 | 16.67° C | 52% | 1015.8 hPa | 0 mm | - | 165 W/m² | - |
| 1778172369 | 16.11° C | 52% | 1016 hPa | 0 mm | - | 249 W/m² | - |
| 1778172067 | 16.67° C | 51% | 1016 hPa | 0 mm | - | 158 W/m² | - |
| 1778171764 | 16.67° C | 54% | 1015.9 hPa | 0 mm | - | 151 W/m² | - |
| 1778171462 | 16.11° C | 53% | 1016.2 hPa | 0 mm | - | 109 W/m² | - |
| 1778171162 | 16.11° C | 52% | 1015.9 hPa | 0 mm | - | 128 W/m² | - |
| 1778170859 | 15.56° C | 53% | 1016.1 hPa | 0 mm | - | 139 W/m² | - |
| 1778170555 | 16.11° C | 54% | 1016.1 hPa | 0 mm | - | 111 W/m² | - |
| 1778170252 | 16.11° C | 53% | 1016.2 hPa | 0 mm | - | 89 W/m² | - |
| 1778169948 | 16.11° C | 52% | 1016.2 hPa | 0 mm | - | 96 W/m² | - |
| 1778169644 | 16.11° C | 53% | 1016.1 hPa | 0 mm | - | 147 W/m² | - |
| 1778169340 | 16.11° C | 52% | 1016.2 hPa | 0 mm | - | 103 W/m² | - |
* Rain latest hour (hover to see other rain measurements)
** Current wind speed in m/s (hover to see current wind gust speed)